This demonstration page uses our WeatherBlox Daily Observations layout. Learn more.

Left ArrowRight Arrow

Hourly Observations for November 18, 2021

Temp ( °F °C ) Dew Point ( °F °C ) Humidity (%) Winds ( mph kmh ) Pressure ( in mb ) Visibility ( mi km ) Precip ( " mm )
12:56 am 00:56 Clear 27 -2.8 11 -11.7 51 51 W 6 9 30.43 1031 10 16 0.00 0.00
1:56 am 01:56 Clear 25 -3.9 12 -11.1 58 58 WSW 8 13 30.45 1031 10 16 0.00 0.00
2:56 am 02:56 Clear 27 -2.8 12 -11.1 53 53 W 8 13 30.46 1031 10 16 0.00 0.00
3:56 am 03:56 Clear 24 -4.4 12 -11.1 60 60 W 7 11 30.47 1032 10 16 0.00 0.00
4:56 am 04:56 Clear 23 -5 12 -11.1 63 63 W 6 9 30.47 1032 10 16 0.00 0.00
5:56 am 05:56 Clear 22 -5.6 12 -11.1 66 66 Calm 30.50 1033 10 16 0.00 0.00
6:56 am 06:56 Clear 19 -7.2 11 -11.7 71 71 WNW 7 11 30.51 1033 10 16 0.00 0.00
7:56 am 07:56 Sunny 21 -6.1 12 -11.1 68 68 WNW 7 11 30.54 1034 10 16 0.00 0.00
8:56 am 08:56 Sunny 26 -3.3 14 -10 60 60 NW 8 13 30.54 1034 10 16 0.00 0.00
9:27 am 09:27 Hazy 28 -2 16 -9 59 59 NW 7 11 30.59 1036 3 4 0.00 0.00
9:36 am 09:36 Sunny 30 -1 16 -9 55 55 NW 7 11 30.58 1036 10 16 0.00 0.00
9:56 am 09:56 Sunny 33 0.6 15 -9.4 47 47 NW 9 15 30.55 1034 10 16 0.00 0.00
10:56 am 10:56 Sunny 38 3.3 13 -10.6 36 36 N 7 11 30.55 1035 10 16 0.00 0.00
11:56 am 11:56 Sunny 42 5.6 13 -10.6 30 30 VRB 7 11 30.53 1034 10 16 0.00 0.00
12:56 pm 12:56 Sunny 44 6.7 12 -11.1 27 27 W 8 13 30.48 1032 10 16 0.00 0.00
1:56 pm 13:56 Sunny 45 7.2 11 -11.7 25 25 WSW 7 11 30.45 1031 10 16 0.00 0.00
2:56 pm 14:56 Sunny 47 8.3 11 -11.7 23 23 SW 7 11 30.42 1030 10 16 0.00 0.00
3:56 pm 15:56 Sunny 47 8.3 10 -12.2 22 22 S 12 19 30.40 1029 10 16 0.00 0.00
4:56 pm 16:56 Sunny 43 6.1 12 -11.1 28 28 SSW 9 15 30.40 1030 10 16 0.00 0.00
5:56 pm 17:56 Clear 34 1.1 14 -10 44 44 SSE 8 13 30.39 1029 10 16 0.00 0.00
6:56 pm 18:56 Clear 32 0 16 -8.9 52 52 SSE 9 15 30.40 1029 10 16 0.00 0.00
7:56 pm 19:56 Clear 30 -1.1 17 -8.3 58 58 SE 10 17 30.37 1029 10 16 0.00 0.00
8:56 pm 20:56 Clear 33 0.6 16 -8.9 49 49 SSE 10 17 30.35 1028 10 16 0.00 0.00
9:56 pm 21:56 Clear 33 0.6 16 -8.9 49 49 SSE 14 22 30.33 1027 10 16 0.00 0.00
10:56 pm 22:56 Clear 31 -0.6 17 -8.3 56 56 SSE 14 22 30.29 1026 10 16 0.00 0.00
11:56 pm 23:56 Clear 30 -1.1 18 -7.8 61 61 SSE 12 19 30.27 1025 10 16 0.00 0.00

Powered by AerisWeather